sat.trackr.live / text

‹ back to catalog

STARLINK-36906

NORAD 68036 · 2026-040X

PAYLOAD ACTIVE UNKNOWN

§ Identity

Operator
Country
US
Launch date
2026-03-01
Launch site
AFWTR
Launch vehicle
Mass (kg)
RCS (m²)

Purposes: comms

External: N2YO · Heavens-Above · Gunter

§ Orbital elements

Epoch: 2026-05-24T19:46:00.094944Z

Period
93.91 min
Inclination
97.2847°
Eccentricity
0.0001688
Mean motion
15.33455089 rev/d
Perigee alt
464.4 km
Apogee alt
466.7 km
Semi-major
6,843.7 km
B*
4.6169e-4
RAAN
93.8823°
Arg perigee
96.5824°
Mean anomaly
263.5611°
Rev number
1,313

§ Raw data

STARLINK-369061 68036U 26040X   26144.82361221  .00014864  00000+0  46169-3 0  99982 68036  97.2847  93.8823 0001688  96.5824 263.5611 15.33455089 13137

JSON: /api/v1/satellites/68036 · /tle

For live sub-satellite position, see the globe view (requires WebGL).

§ Visibility from observer

Set your observer location to see the next 7 days of passes ≥ 10°. The values pass through the URL so the page stays shareable.

No JS? Fill the form by hand. The geolocation button needs JavaScript.